Hourly Weather Roundup
Issued by NWS Central Illinois

Home | Current Version | Previous Version | Text Only | Print | Product List | Glossary On
Versions: 1 2 3 4 5 6 7 8 9 10 11 12 13 14 15 16 17 18 19 20 21 22 23 24 25 26 27 28 29 30 31 32 33 34 35 36 37 38 39 40 41 42 43 44 45 46 47 48 49 50
000
NZUS43 KILX 281510
HWRILX

AREA WEATHER ROUNDUP
NATIONAL WEATHER SERVICE, LINCOLN IL
1000 AM CDT THU JUL 28 2016


CITY           SKY/WX    TMP DP  RH WIND       PRES   REMARKS
BLOOMINGTON    MOSUNNY   78  70  76 SE7       29.92F HX  80
CHAMPAIGN      CLOUDY    73  69  87 CALM      29.92S
DANVILLE       RAIN      72  72  98 CALM      29.89F
DECATUR        MOSUNNY   79  72  79 SE8       29.91F HX  82
EFFINGHAM      CLOUDY    77  75  95 CALM      29.93S
FLORA          CLOUDY    78  75  89 CALM      29.92R HX  81
GALESBURG      SUNNY     79  70  73 NW9       29.91S HX  82
JACKSONVILLE   PTSUNNY   79  73  82 W6        29.91S HX  82
LACON          PTSUNNY   79  72  80 E3        29.90S HX  82
LAWRENCEVILLE  CLOUDY    78  73  84 S7        29.91F HX  81
LITCHFIELD       N/A    N/A N/A N/A MISG        N/A
$$


CITY           SKY/WX    TMP DP  RH WIND       PRES   REMARKS
LINCOLN        CLOUDY    79  74  85 CALM      29.90F HX  82
MACOMB         SUNNY     79  71  75 NW9       29.94S HX  82
MATTOON        CLOUDY    72  64  76 NE8       29.92S
MT CARMEL AP   CLOUDY    77  72  86 S3        29.91F
OLNEY-NOBLE AP CLOUDY    77  73  88 CALM      29.93R
PARIS          CLOUDY    76  75  96 NW5       29.92S FOG
PEORIA         CLOUDY    82  73  74 CALM      29.90S HX  87
PONTIAC        PTSUNNY   80  74  81 SE7       29.92S HX  84
RANTOUL        NOT AVBL
ROBINSON       CLOUDY    77  73  88 CALM      29.92F
SPRINGFIELD    MOSUNNY   83  74  74 NE3       29.91R HX  89
TAYLORVILLE    PTSUNNY   80  75  85 MISG      29.90F HX  85
$$

...REGIONAL REPORTS...


CITY           SKY/WX    TMP DP  RH WIND       PRES   REMARKS
CHICAGO O`HARE CLOUDY    81  70  69 NE8       29.90F HX  84
KANKAKEE       CLOUDY    78  69  75 SE3       29.92S HX  80
MOLINE         SUNNY     83  69  62 W5        29.89F HX  86
MOUNT STERLING SUNNY     78  71  78 N6        29.91F HX  81
MOUNT VERNON   PTSUNNY   79  72  78 MISG      29.90F HX  82
PITTSFIELD     SUNNY     79  71  76 NW5       29.93F HX  82
QUINCY         SUNNY     80  73  79 NW6       29.92F HX  84
ROCKFORD       MOSUNNY   79  69  71 E5        29.91F HX  81
$$


CITY           SKY/WX    TMP DP  RH WIND       PRES   REMARKS
BURLINGTON     SUNNY     79  71  76 NW6       29.92S HX  82
CEDAR RAPIDS   CLOUDY    69  67  93 NW13      29.94R
DES MOINES     MOSUNNY   77  66  68 N14       29.98S
KIRKSVILLE     SUNNY     82  68  62 N10       29.95F HX  85
OTTUMWA        SUNNY     76  68  76 NW13      29.93S
ST LOUIS       MOSUNNY   86  73  65 NW6       29.91S HX  93
$$


CITY           SKY/WX    TMP DP  RH WIND       PRES   REMARKS
TERRE HAUTE    CLOUDY    78  73  84 CALM      29.91F HX  81
EVANSVILLE     CLOUDY    76  72  87 W6        29.93S
INDIANAPOLIS   CLOUDY    79  70  74 W5        29.93S HX  82
LAFAYETTE      CLOUDY    76  72  87 SW5       29.90F
MADISON        CLOUDY    72  67  84 NE9       29.93S
MILWAUKEE      PTSUNNY   74  68  81 N9        29.93F
$$





USA.gov is the U.S. government's official web portal to all federal, state and local government web resources and services.